Change the Weather History Date:

Friday, December 20, 2013

  Actual Average Record
Temperature  
Mean Temperature 48 °F -  
Max Temperature 50 °F 45 °F 53 °F (2003)
Min Temperature 45 °F 39 °F 30 °F (2007)
Degree Days  
Heating Degree Days 18    
Moisture  
Dew Point 41 °F    
Average Humidity 74    
Maximum Humidity 87    
Minimum Humidity 57    
Precipitation  
Precipitation 0.00 in - - ()
Sea Level Pressure  
Sea Level Pressure 30.24 in    
Wind  
Wind Speed 17 mph ()    
Max Wind Speed 28 mph    
Max Gust Speed 37 mph    
Visibility 8.0 miles    
Events Rain , Hail    
Averages and records for this station are not official NWS values.
T = Trace of Precipitation, MM = Missing Value Source: Averaged Metar Reports

Daily Weather History Graph

Daily Weather History Graph

Search for Another Location

Airport or City:

Trip Planner

Search our weather history database for the weather conditions in past years. The results will help you decide how hot, cold, wet, or windy it might be!

Date:

Astronomy

Dec. 20, 2013 Rise Set
Actual Time 8:00 AM GMT 4:12 PM GMT
Civil Twilight 7:22 AM GMT 4:50 PM GMT
Nautical Twilight 6:42 AM GMT 5:30 PM GMT
Astronomical Twilight 6:03 AM GMT 6:09 PM GMT
Moon 7:34 PM GMT (12/20) 9:32 AM GMT (12/20)
Length of Visible Light 9h 27m
Length of Day
8h 11m
Waning Gibbous, 92% of the Moon is Illuminated
Dec 20
Waning Gibbous
Dec 25
Last Quarter
Jan 1
New
Jan 8
First Quarter
Jan 16
Full

Hourly Weather History & Observations

Time (GMT) Temp. Windchill Dew Point Humidity Pressure Visibility Wind Dir Wind Speed Gust Speed Precip Events Conditions
12:00 AM 46 °F - 37 °F 62% 29.99 in 28 mi WNW 16.1 mph - - Rain Light Rain Showers
1:00 AM 45 °F - 36 °F 61% 30.01 in 28 mi WNW 19.6 mph - - Hail Light Hail Showers
2:00 AM 46 °F - 37 °F 62% 30.05 in 28 mi West 20.7 mph - - Rain Light Rain Showers
3:00 AM 47 °F - 37 °F 57% 30.08 in 28 mi West 20.7 mph - -   Partly Cloudy
3:50 AM 46.4 °F 38.5 °F 35.6 °F 66% 30.09 in 6.2 mi WNW 21.9 mph - N/A   Partly Cloudy
4:00 AM 46 °F - 36 °F 60% 30.11 in 25 mi WNW 21.9 mph - - Hail Light Hail Showers
4:20 AM 46.4 °F 38.7 °F 39.2 °F 76% 30.12 in 6.2 mi West 20.7 mph 36.8 mph N/A Rain Light Rain Showers
4:50 AM 46.4 °F 39.2 °F 37.4 °F 71% 30.12 in 6.2 mi WNW 18.4 mph - N/A Rain Light Rain Showers
5:00 AM 46 °F - 38 °F 63% 30.14 in 22 mi West 23.0 mph - - Rain Light Rain Showers
5:20 AM 46.4 °F 39.0 °F 37.4 °F 71% 30.15 in 6.2 mi WNW 19.6 mph - N/A   Scattered Clouds
5:50 AM 46.4 °F 39.8 °F 37.4 °F 71% 30.15 in 6.2 mi WNW 16.1 mph - N/A   Scattered Clouds
6:00 AM 46 °F - 38 °F 65% 30.18 in 25 mi WNW 17.3 mph - -   Partly Cloudy
6:20 AM 46.4 °F 39.2 °F 37.4 °F 71% 30.18 in 6.2 mi West 18.4 mph - N/A   Scattered Clouds
6:50 AM 46.4 °F 40.1 °F 39.2 °F 76% 30.18 in 6.2 mi West 15.0 mph - N/A   Partly Cloudy
7:00 AM 48 °F - 39 °F 61% 30.20 in 25 mi West 19.6 mph - -   Scattered Clouds
7:20 AM 48.2 °F - 39.2 °F 71% 30.21 in 6.2 mi West 20.7 mph - N/A   Partly Cloudy
7:50 AM 46.4 °F 39.0 °F 37.4 °F 71% 30.21 in 6.2 mi West 19.6 mph - N/A   Partly Cloudy
8:00 AM 48 °F - 38 °F 58% 30.24 in 25 mi West 17.3 mph - -   Scattered Clouds
8:20 AM 48.2 °F - 39.2 °F 71% 30.24 in 6.2 mi West 19.6 mph - N/A   Scattered Clouds
8:50 AM 48.2 °F - 39.2 °F 71% 30.24 in 6.2 mi West 15.0 mph - N/A   Partly Cloudy
9:00 AM 48 °F - 39 °F 63% 30.27 in 31 mi West 13.8 mph - -   Scattered Clouds
9:20 AM 48.2 °F - 39.2 °F 71% 30.27 in 6.2 mi West 18.4 mph - N/A   Scattered Clouds
9:50 AM 48.2 °F - 41.0 °F 76% 30.27 in 6.2 mi WSW 12.7 mph - N/A   Partly Cloudy
10:00 AM 49 °F - 41 °F 64% 30.29 in 31 mi West 17.3 mph - -   Scattered Clouds
10:20 AM 48.2 °F - 41.0 °F 76% 30.30 in 6.2 mi West 13.8 mph - N/A   Partly Cloudy
10:50 AM 48.2 °F - 42.8 °F 82% 30.30 in 6.2 mi SW 16.1 mph - N/A   Partly Cloudy
11:00 AM 49 °F - 44 °F 75% 30.31 in 31 mi SW 13.8 mph - -   Scattered Clouds
11:20 AM 50.0 °F - 42.8 °F 76% 30.30 in 6.2 mi SW 18.4 mph - N/A   Partly Cloudy
11:50 AM 50.0 °F - 42.8 °F 76% 30.30 in 6.2 mi SW 12.7 mph - N/A   Partly Cloudy
12:00 PM 49 °F - 43 °F 74% 30.32 in 25 mi SW 15.0 mph - -   Scattered Clouds
12:20 PM 50.0 °F - 42.8 °F 76% 30.30 in 6.2 mi SW 17.3 mph - N/A   Partly Cloudy
12:50 PM 50.0 °F - 42.8 °F 76% 30.30 in 6.2 mi WSW 16.1 mph - N/A   Partly Cloudy
1:00 PM 50 °F - 43 °F 68% 30.32 in 22 mi SW 18.4 mph - -   Scattered Clouds
1:20 PM 50.0 °F - 42.8 °F 76% 30.30 in 6.2 mi SW 16.1 mph - N/A   Partly Cloudy
1:50 PM 50.0 °F - 42.8 °F 76% 30.30 in 6.2 mi SW 13.8 mph - N/A   Partly Cloudy
2:00 PM 49 °F - 44 °F 75% 30.32 in 22 mi SSW 17.3 mph - -   Scattered Clouds
2:20 PM 48.2 °F - 42.8 °F 82% 30.30 in 6.2 mi South 11.5 mph - N/A   Partly Cloudy
2:50 PM 48.2 °F - 42.8 °F 82% 30.30 in 6.2 mi SSW 17.3 mph - N/A   Partly Cloudy
3:00 PM 48 °F - 43 °F 76% 30.31 in 22 mi South 18.4 mph - -   Scattered Clouds
3:20 PM 48.2 °F - 42.8 °F 82% 30.30 in 6.2 mi South 18.4 mph - N/A   Partly Cloudy
3:50 PM 48.2 °F - 42.8 °F 82% 30.30 in 6.2 mi SSW 17.3 mph - N/A   Partly Cloudy
4:00 PM 48 °F - 43 °F 76% 30.31 in 17 mi SSW 20.7 mph - -   Scattered Clouds
4:20 PM 48.2 °F - 42.8 °F 82% 30.30 in 6.2 mi SSW 17.3 mph - N/A   Partly Cloudy
4:50 PM 48.2 °F - 42.8 °F 82% 30.30 in 6.2 mi SSW 18.4 mph - N/A   Partly Cloudy
5:00 PM 49 °F - 44 °F 77% 30.31 in 17 mi SSW 17.3 mph - -   Scattered Clouds
5:20 PM 48.2 °F - 42.8 °F 82% 30.30 in 6.2 mi SSW 17.3 mph - N/A   Partly Cloudy
5:50 PM 48.2 °F - 42.8 °F 82% 30.30 in 6.2 mi South 12.7 mph - N/A   Partly Cloudy
6:00 PM 49 °F - 44 °F 76% 30.30 in 17 mi South 24.2 mph - -   Scattered Clouds
6:20 PM 48.2 °F - 44.6 °F 87% 30.27 in 6.2 mi SSW 18.4 mph - N/A   Scattered Clouds
6:50 PM 48.2 °F - 44.6 °F 87% 30.27 in 6.2 mi South 21.9 mph - N/A   Partly Cloudy
7:00 PM 49 °F - 44 °F 77% 30.29 in 16 mi South 25.3 mph - -   Scattered Clouds
7:20 PM 48.2 °F - 44.6 °F 87% 30.27 in 6.2 mi SSW 24.2 mph - N/A   Partly Cloudy
7:50 PM 48.2 °F - 44.6 °F 87% 30.27 in 6.2 mi SSW 25.3 mph - N/A   Partly Cloudy
8:00 PM 49 °F - 44 °F 76% 30.29 in 16 mi SSW 25.3 mph - -   Scattered Clouds
8:20 PM 48.2 °F - 44.6 °F 87% 30.27 in 6.2 mi SSW 27.6 mph - N/A   Partly Cloudy
8:50 PM 48.2 °F - 44.6 °F 87% 30.27 in 6.2 mi SSW 21.9 mph - N/A   Partly Cloudy
9:00 PM 49 °F - 44 °F 76% 30.28 in 16 mi SSW 24.2 mph - -   Scattered Clouds
9:20 PM 50.0 °F - 44.6 °F 82% 30.27 in 6.2 mi SSW 23.0 mph - N/A   Partly Cloudy
10:00 PM 49 °F - 44 °F 76% 30.28 in 16 mi SSW 21.9 mph - -   Partly Cloudy
11:00 PM 50 °F - 45 °F 76% 30.26 in 16 mi SSW 23.0 mph - -   Mostly Cloudy